This demonstration page uses our WeatherBlox Daily Observations layout. Learn more.

Left ArrowRight Arrow

Hourly Observations for November 29, 2015

Temp ( °F °C ) Dew Point ( °F °C ) Humidity (%) Winds ( mph kmh ) Pressure ( in mb ) Visibility ( mi km ) Precip ( " mm )
12:53 am 00:53 Cloudy with Light Rain 41 5 39 3.9 93 93 NNE 7 11 30.26 1025 4 6 0.02 0.51
1:53 am 01:53 Cloudy with Light Rain 40 4.4 38 3.3 93 93 NNE 8 13 30.26 1025 3 5 0.01 0.25
2:53 am 02:53 Cloudy with Light Rain 40 4.4 38 3.3 93 93 NNE 6 9 30.27 1025 5 8 0.00 0.03
3:53 am 03:53 Cloudy 40 4.4 38 3.3 93 93 NE 6 9 30.26 1025 8 13 0.01 0.25
4:48 am 04:48 Cloudy with Light Rain 39 4 37 3 93 93 NNE 3 6 30.24 1024 7 11 0.01 0.25
4:53 am 04:53 Cloudy with Light Rain 40 4.4 38 3.3 93 93 NE 5 7 30.26 1025 7 11 0.01 0.25
5:19 am 05:19 Cloudy with Light Rain 40 4.4 38 3.3 93 93 NNE 8 13 30.24 1024 9 14 0.00 0.03
5:36 am 05:36 Cloudy with Light Rain 40 4.4 38 3.3 93 93 N 8 13 30.27 1025 7 11 0.01 0.25
5:53 am 05:53 Cloudy with Light Rain 40 4.4 38 3.3 93 93 N 6 9 30.28 1025 8 13 0.02 0.51
6:20 am 06:20 Cloudy 40 4.4 37 2.8 89 89 NNE 6 9 30.27 1025 10 16 0.00 0.03
6:53 am 06:53 Cloudy 40 4.4 37 2.8 89 89 NNE 6 9 30.27 1025 9 14 0.00 0.03
7:44 am 07:44 Cloudy 40 4.4 37 2.8 89 89 NNE 7 11 30.27 1025 9 14 0.00 0.00
7:53 am 07:53 Cloudy 40 4.4 37 2.8 89 89 NNE 10 17 30.29 1026 8 13 0.00 0.00
8:53 am 08:53 Cloudy 40 4.4 37 2.8 89 89 N 6 9 30.32 1027 8 13 0.00 0.00
9:53 am 09:53 Cloudy 40 4.4 36 2.2 86 86 NE 7 11 30.33 1027 9 14 0.00 0.00
10:53 am 10:53 Mostly Cloudy 41 5 36 2.2 82 82 ENE 10 17 30.33 1027 10 16 0.00 0.00
11:53 am 11:53 Mostly Cloudy 43 6.1 37 2.8 80 80 E 9 15 30.31 1026 10 16 0.00 0.00
12:16 pm 12:16 Partly Cloudy 44 6.7 38 3.3 79 79 E 10 17 30.27 1025 10 16 0.00 0.00
12:53 pm 12:53 Sunny 44 6.7 36 2.2 73 73 ENE 10 17 30.28 1025 10 16 0.00 0.00
1:53 pm 13:53 Sunny 44 6.7 36 2.2 73 73 ENE 8 13 30.25 1024 10 16 0.00 0.00
2:53 pm 14:53 Sunny 44 6.7 36 2.2 73 73 ENE 10 17 30.24 1024 10 16 0.00 0.00
3:53 pm 15:53 Sunny 44 6.7 36 2.2 73 73 NE 6 9 30.24 1024 10 16 0.00 0.00
4:53 pm 16:53 Sunny 43 6.1 36 2.2 76 76 ENE 6 9 30.26 1025 10 16 0.00 0.00
5:53 pm 17:53 Clear 43 6.1 36 2.2 76 76 ENE 8 13 30.24 1024 10 16 0.00 0.00
6:53 pm 18:53 Clear 42 5.6 35 1.7 76 76 ENE 6 9 30.26 1025 10 16 0.00 0.00
7:53 pm 19:53 Clear 42 5.6 35 1.7 76 76 ENE 7 11 30.25 1025 10 16 0.00 0.00
8:53 pm 20:53 Clear 41 5 35 1.7 79 79 E 5 7 30.27 1025 10 16 0.00 0.00
9:53 pm 21:53 Clear 41 5 34 1.1 76 76 NE 6 9 30.26 1025 10 16 0.00 0.00
10:53 pm 22:53 Clear 41 5 34 1.1 76 76 ENE 7 11 30.25 1024 10 16 0.00 0.00
11:53 pm 23:53 Clear 40 4.4 34 1.1 79 79 NE 7 11 30.25 1025 10 16 0.00 0.00

Powered by AerisWeather